Tracking 25648 objects as of 17-May-2022
HD Live streaming from Space Station
objects crossing your sky now

COSMOS 2251 DEB

Track COSMOS 2251 DEB now!
10-day predictions


NORAD ID: 36622
Int'l Code: 1993-036BEL
Perigee: 630.7 km
Apogee: 756.0 km
Inclination: 74.0 °
Period: 98.5 minutes
Semi major axis: 7064 km
RCS: 0.0002 m2 (small)
Launch date: June 16, 1993
Source: Commonwealth of Independent States (former USSR) (CIS)
Launch site: PLESETSK MISSILE AND SPACE COMPLEX (PKMTR)

Note: This is SATELLITE DEBRIS
aabbcc
Your satellite tracking list
Your tracking list is empty




NASA's NSSDC Master Catalog

Two Line Element Set (TLE):
1 36622U 93036BEL 22136.37450282  .00001600  00000-0  30682-3 0  9994
2 36622  74.0193 153.0997 0088694 256.0491 103.0800 14.62165953475810
Source of the keplerian elements: AFSPC